• MPC Preparation (Info)

  • MPEC 2011-B27 : 2011 BJ10

    The following Minor Planet Electronic Circular may be linked-to from your own Web pages, but must not otherwise be redistributed electronically.

    A form allowing access to any MPEC is at the bottom of this page.


    Read MPEC 2011-B26 Read MPEC 2011-B28


    M.P.E.C. 2011-B27                                Issued 2011 Jan. 24, 16:06 UT
    
         The Minor Planet Electronic Circulars contain information on unusual
             minor planets and routine data on comets.  They are published
       on behalf of Commission 20 of the International Astronomical Union by the
              Minor Planet Center, Smithsonian Astrophysical Observatory,
                              Cambridge, MA 02138, U.S.A.
    
                 Prepared using the Tamkin Foundation Computer Network
    
                                  MPC@CFA.HARVARD.EDU
           URL https://www.minorplanetcenter.org/iau/mpc.html  ISSN 1523-6714
    
                                       2011 BJ10
    
    Observations:
         K11B10J* C2011 01 23.29587 08 16 12.00 +13 31 42.7          20.5 VrEB027G96
         K11B10J  C2011 01 23.30338 08 16 11.67 +13 33 34.2          20.6 VrEB027G96
         K11B10J  C2011 01 23.31089 08 16 11.31 +13 35 23.7          20.3 VrEB027G96
         K11B10J  C2011 01 23.31839 08 16 10.95 +13 37 13.8          20.2 VrEB027G96
         K11B10J  C2011 01 23.36588 08 16 08.76 +13 48 50.5          20.4 VrEB027G96
         K11B10J  C2011 01 23.36700 08 16 08.68 +13 49 07.8          20.5 VrEB027G96
         K11B10J  C2011 01 23.36758 08 16 08.65 +13 49 15.7          20.4 VrEB027G96
         K11B10J  C2011 01 23.36817 08 16 08.68 +13 49 23.7          20.5 VrEB027G96
         K11B10J  C2011 01 23.40692 08 16 06.96 +13 58 51.2          20.7 VrEB027G96
         K11B10J  C2011 01 23.40749 08 16 06.96 +13 58 58.8          20.1 VrEB027G96
         K11B10J  C2011 01 23.40808 08 16 06.92 +13 59 07.8          19.8 VrEB027G96
         K11B10J  C2011 01 23.40866 08 16 06.85 +13 59 15.5          20.1 VrEB027G96
         K11B10J  C2011 01 23.40924 08 16 06.85 +13 59 24.0          20.2 VrEB027G96
         K11B10J  C2011 01 24.37268 08 15 47.66 +17 49 12.9          20.4 VrEB027G96
         K11B10J  C2011 01 24.38589 08 15 47.12 +17 52 16.1          19.4 VrEB027G96
         K11B10J  C2011 01 24.39352 08 15 46.80 +17 54 02.1          20.3 VrEB027G96
         K11B10J  C2011 01 24.40112 08 15 46.47 +17 55 47.9          20.4 VrEB027G96
    
    Observer details:
    G96 Mt. Lemmon Survey.  Observers A. Boattini, S. M. Larson.  Measurers
        J. D. Ahern, E. C. Beshore, A. Boattini, G. J. Garradd, A. R. Gibbs,
        A. D. Grauer, R. E. Hill, R. A. Kowalski, S. M. Larson, R. H. McNaught.
        1.5-m reflector + CCD.
    
    Orbital elements:
    2011 BJ10                                                Earth MOID = 0.1175 AU
    Epoch 2011 Feb. 8.0 TT = JDT 2455600.5                  MPC
    M  45.29763              (2000.0)            P               Q
    n   0.61922964     Peri.  298.41244     +0.37445681     -0.83943297
    a   1.3632271      Node   124.06597     +0.92564196     +0.36337116
    e   0.2757093      Incl.   28.38956     -0.05448914     +0.40412090
    P   1.59           H   24.2           G   0.15           U   8
    Residuals in seconds of arc
    110123 G96  0.1-  0.2-    110123 G96  0.4-  0.1+    110123 G96  0.1-  0.4-
    110123 G96  0.2+  0.8+    110123 G96  0.4+  0.6-    110124 G96  0.5-  0.3+
    110123 G96  0.1+  0.2-    110123 G96  0.1+  0.6+    110124 G96  0.1+  0.2-
    110123 G96  0.0   0.4-    110123 G96  0.4+  0.1-    110124 G96  0.2+  0.2-
    110123 G96  0.0   0.2-    110123 G96  0.2+  0.3+    110124 G96  0.1+  0.1+
    110123 G96  0.4-  0.7+    110123 G96  0.4-  0.4-
    
    Ephemeris:
    2011 BJ10                a,e,i = 1.36, 0.28, 28                  q = 0.9874
    Date    TT    R. A. (2000) Decl.     Delta      r     Elong.  Phase     V
    2010 12 25    08 19 02.7 -62 07 21   0.2539  1.0193    90.8    74.8    23.9
    ...
    2011 01 09    08 20 20.4 -40 29 51   0.1538  1.0592   115.7    56.8    22.3
    ...
    2011 01 17    08 18 20.7 -13 38 41   0.1213  1.0853   144.9    31.4    21.1
    ...
    2011 01 23    08 16 17.8 +12 18 55   0.1232  1.1066   172.7     6.5    20.4
    2011 01 24    08 15 56.9 +16 21 47   0.1261  1.1102   176.5     3.1    20.2
    2011 01 25    08 15 36.5 +20 12 44   0.1297  1.1139   177.0     2.6    20.3
    ...
    2011 01 31    08 13 53.5 +38 25 21   0.1622  1.1368   157.5    19.3    21.5
    ...
    2011 02 08    08 13 33.2 +51 48 07   0.2241  1.1686   140.8    32.3    22.7
    ...
    2011 02 23    08 22 43.2 +61 01 03   0.3618  1.2308   124.5    41.5    24.1
    
    Sonia Keys                   (C) Copyright 2011 MPC           M.P.E.C. 2011-B27
    

    Read MPEC 2011-B26 Read MPEC 2011-B28


    MPEC number:

    Enter an MPEC number in one of the following forms:

    • 1997-B01 (the full form)
    • J97B01 (the packed version of the full form)
    • B01 (the abbreviated form)